HTMW

Mwanza Airport

Airport
ICAO code
HTMW
IATA Code
MWZ
Summary
ICAO Region
AFI
ICAO Territory
Location

Mwanza, Mwanza Region

Serving
Mwanza
Elevation
3763 ft
Coordinates
2° 26' 40" S , 32° 55' 60" E
KCC
Metar
HTMW 151800Z 00000KT 9999 FEW020 FEW021CB 21/17 Q1015 NOSIG

Mwanza International Airport is a major regional airport in northern Tanzania serving the city of Mwanza. It is located near the shores of Lake Victoria.

Climatology

Tropical Savanna climate (Köppen climate classification Aw)

Runways

Designator Length Width Surface Rops
12/30 3113 45 ASP No/No

Airport map

Aerial View

SKYbrary Partners:

Safety knowledge contributed by: